Regional Weather Roundup
Issued by NWS

Home | Current Version | Previous Version | Text Only | Print | Product List | Glossary Off
Versions: 1 2 3 4 5 6 7 8 9 10 11 12 13 14 15 16 17 18 19 20 21 22 23 24 25 26 27 28 29 30 31 32 33 34 35 36 37 38 39 40 41 42 43 44 45 46 47 48 49 50

344
ASUS43 KLOT 112208
RWRIL

ILLINOIS REGIONAL WEATHER ROUNDUP
NATIONAL WEATHER SERVICE CHICAGO/ROMEOVILLE IL
400 PM CST THU FEB 11 2016

NOTE: "FAIR" INDICATES FEW OR NO CLOUDS BELOW 12,000 FEET WITH NO
SIGNIFICANT WEATHER AND/OR OBSTRUCTIONS TO VISIBILITY.

* THESE STATIONS ARE NOT UNDER NWS QUALITY CONTROL. THEY ALSO MAY NOT
  REPORT WEATHER SUCH AS PRECIPITATION OR FOG.

ILZ001-002-007-009-015-016-024-112300-
NORTHWEST ILLINOIS

CITY           SKY/WX    TMP DP  RH WIND       PRES   REMARKS
MOLINE         SUNNY     23   0  36 CALM      30.28F
STERLING*      SUNNY     25   5  42 W5        30.27S WCI  19
SAVANNA*       SUNNY     22   2  41 W3        30.29S
$$

ILZ003-004-008-010-011-017-018-112300-
NORTH CENTRAL ILLINOIS

CITY           SKY/WX    TMP DP  RH WIND       PRES   REMARKS
ROCKFORD       MOSUNNY   21   4  47 W6        30.30S WCI  13
FREEPORT*      SUNNY     20   2  47 W5        30.29S WCI  13
ROCHELLE*      SUNNY     22   4  47 NW5       30.28F WCI  15
DE KALB*       SUNNY     20   5  52 NW6       30.27S WCI  12
$$

ILZ005-006-012>014-019>023-112300-
NORTHEAST ILLINOIS

CITY           SKY/WX    TMP DP  RH WIND       PRES   REMARKS
CHICAGO-OHARE  MOSUNNY   21   1  41 NW8       30.27S WCI  11
CHICAGO-MIDWAY MOSUNNY   23  -2  33 CALM      30.28F
AURORA         SUNNY     21   5  50 W5        30.28F WCI  15
LANSING*       SUNNY     24   2  40 W3        30.28F
JOLIET*        SUNNY     23   5  45 W3        30.30S
WAUKEGAN       SUNNY     19   1  45 W7        30.26S WCI  10
DUPAGE AIRPORT SUNNY     21   3  45 NW8       30.27S WCI  11
KANKAKEE*      SUNNY     23   5  45 CALM      30.30S
WHEELING       SUNNY     21   0  39 W6        30.28F WCI  13
MORRIS*        SUNNY     22   6  48 CALM      30.27F
ROMEOVILLE*    SUNNY     22   2  42 NW5       30.29S WCI  16
NORTHERLY ISL    N/A     20   7  57 E3          N/A
$$

LMZ740>746-112300-
SOUTHERN LAKE MICHIGAN

STATION/POSITION SKY/WX   TEMP    WIND        PRES    VSBY  WAVE
                          AIR SEA DIR/SP/G                  HT/PER
                          (F)     (DEG/KT/KT) (MB)    (MI)  (FT/S)
HARRISON CRIB              20      10/  4/  6   N/A
BURNHAM HARBOR             20     110/  2/  7   N/A
CALUMET HARBOR             19      50/  6/  8 1025.0F
BURNS HARBOR               18     350/  4/  8 1026.4S
MICHIGAN CITY              19     280/  8/  9   N/A
$$

ILZ025>027-034>036-040-047-049-050-058-095>099-112300-
WEST-CENTRAL ILLINOIS

CITY           SKY/WX    TMP DP  RH WIND       PRES   REMARKS
QUINCY         PTSUNNY   24   7  48 N3        30.29S
GALESBURG*     SUNNY     24   5  43 E3        30.28S
MACOMB*        MOSUNNY   25   7  47 CALM      30.31S
JACKSONVILLE*  PTSUNNY   26  10  51 SE5       30.30S WCI  20
PITTSFIELD*    CLOUDY    24  10  53 E5        30.30F WCI  18
$$

ILZ028>032-037-038-041>044-048-051>054-059>061-112300-
CENTRAL ILLINOIS

CITY           SKY/WX    TMP DP  RH WIND       PRES   REMARKS
PONTIAC        SUNNY     23   7  50 NW5       30.31S WCI  17
BLOOMINGTON    SUNNY     23   4  44 CALM      30.30S
DECATUR        SUNNY     24   6  46 CALM      30.30S
PEORIA         SUNNY     26   0  32 NW3       30.30F
LACON*         SUNNY     23   2  39 CALM      30.30F
LINCOLN*       SUNNY     26   8  45 CALM      30.30F
SPRINGFIELD    SUNNY     27   6  41 CALM      30.31S
TAYLORVILLE    SUNNY     27   9  46 CALM      30.31S
$$

ILZ033-039-045-046-055>057-062-063-112300-
EAST-CENTRAL ILLINOIS

CITY           SKY/WX    TMP DP  RH WIND       PRES   REMARKS
CHAMPAIGN      SUNNY     23   2  40 CALM      30.30R
RANTOUL*       SUNNY     24   8  52 N3        30.31R
MATTOON        SUNNY     23   7  50 N5        30.30R WCI  17
PARIS*         SUNNY     24   8  51 CALM      30.32R
$$

ILZ079-100>102-112300-
SOUTHWEST ILLINOIS

CITY           SKY/WX    TMP DP  RH WIND       PRES   REMARKS
ALTON          PTSUNNY  N/A N/A N/A NE8       30.31S
BELLEVILLE     SUNNY     28   7  40 VRB5      30.30S WCI  23
CAHOKIA*       SUNNY     32   9  38 N8        30.31R WCI  25
SPARTA*        SUNNY     28  16  58 CALM      30.31R
$$

ILZ064>066-069>071-074>076-080>082-084>086-088>090-092>094-112300-
SOUTH-CENTRAL ILLINOIS

CITY           SKY/WX    TMP DP  RH WIND       PRES   REMARKS
CARBONDALE     SUNNY     32  18  56 NE7       30.29S WCI  26
CAIRO*         SUNNY     37  25  60 N7        30.27S WCI  32
EFFINGHAM*     MOSUNNY   26  11  53 N6        30.33S WCI  19
MARION         PTSUNNY   32  18  55 NE8       30.30S WCI  25
MT. VERNON     SUNNY     30  10  43 N3        30.30S
CENTRALIA*     SUNNY     29  12  49 CALM      30.30R
SALEM*         SUNNY     29   8  41 N6        30.30S WCI  23
METROPOLIS*    SUNNY     38  24  57 N6        30.28S WCI  33
$$

ILZ067-068-072-073-078-083-087-091-112300-
SOUTHEAST ILLINOIS

CITY           SKY/WX    TMP DP  RH WIND       PRES   REMARKS
LAWRENCEVILLE  SUNNY     30  10  43 NE8       30.31S WCI  22
FLORA*         SUNNY     29   9  42 N7        30.31S WCI  22
FAIRFIELD*     SUNNY     31  11  43 N6        30.30R WCI  25
HARRISBURG*    SUNNY     32  19  58 E5        30.30S WCI  27
ROBINSON*      SUNNY     25   6  43 N5        30.33S WCI  20
CARMI*         SUNNY     32  10  41 CALM      30.30S
$$

ABBREVIATIONS USED IN REMARKS
   TC - TEMPERATURE IN CELSIUS
  WCI - WIND CHILL INDEX
   HX - HEAT INDEX
  VSB - VISIBILITY
$$





USA.gov is the U.S. government's official web portal to all federal, state and local government web resources and services.